Home > Weather > Pelotas > Past weeks

Flag for Brazil Weather for the Past 2 Weeks in Pelotas, Rio Grande do Sul, Brazil

Now
45 °F

Clear.


Feels Like: 42 °F
Forecast: 40 / 57 °F
Wind: 5 mph from West

Location: Pelotas Airport

Current Time: Apr 29, 2016 at 1:22:02 AM

Latest Report: Apr 29, 2016 at 1:00 AM


Visibility: 10 mi

Pressure: 30.21 "Hg

Humidity: 87%

Dew Point: 41 °F

Location of PelotasLocation

Historic Weather in Pelotas — Graph

°F

Pelotas Temperature Yesterday

Maximum temperature yesterday: 63 °F (at 2:00 PM)
Minimum temperature yesterday: 45 °F (at 3:00 AM)
Average temperature yesterday: 51 °F

High & Low Weather Summary for the Past Weeks

 TemperatureHumidityPressure
High97 °F (Apr 16, 1:00 PM)100% (Apr 15, 1:00 AM)30.21 "Hg (Apr 15, 1:00 AM)
Low32 °F (Apr 24, 9:00 AM)39% (Apr 27, 2:00 PM)29.56 "Hg (Apr 25, 5:00 AM)
Average69 °F84%29.91 "Hg
* Reported Apr 13 11:00 PM — Apr 28 11:00 PM, Pelotas, Weather by CustomWeather, © 2016

Note: Actual official high and low records may vary slightly from our data, if they occured in-between our weather recording intervals... More about our weather records

Advertising

Pelotas Weather History for the Previous 24 Hours

Scroll right to see more
 ConditionsComfort  
Time TempWeatherWind HumidityBarometerVisibility
11:00 PM
Thu, Apr 28
46 °FClear.7 mph82%30.21 "Hg10 mi
10:00 PM46 °FClear.5 mph87%30.21 "Hg10 mi
9:00 PM48 °FClear.3 mph82%30.18 "Hg10 mi
8:00 PM50 °FClear.3 mph76%30.18 "Hg10 mi
7:00 PM52 °FClear.2 mph67%30.18 "Hg10 mi
6:00 PM55 °FPassing clouds.6 mph55%30.18 "HgN/A
5:00 PM59 °FPassing clouds.10 mph48%30.18 "HgN/A
4:00 PM61 °FPassing clouds.16 mph45%30.15 "HgN/A
3:00 PM61 °FScattered clouds.18 mph48%30.18 "HgN/A
2:00 PM63 °FPassing clouds.14 mph42%30.18 "HgN/A
1:00 PM61 °FPassing clouds.14 mph45%30.18 "HgN/A
12:00 PM59 °FSunny.18 mph51%30.18 "Hg10 mi
11:00 AM57 °FSunny.16 mph59%30.21 "Hg10 mi
10:00 AM55 °FSunny.18 mph63%30.21 "Hg10 mi
9:00 AM50 °FSunny.12 mph71%30.18 "Hg10 mi
8:00 AM46 °FSunny.10 mph82%30.15 "Hg10 mi
7:00 AM45 °FSunny.13 mph81%30.12 "Hg10 mi
6:00 AM45 °FSunny.10 mph81%30.12 "Hg10 mi
5:00 AM45 °FClear.10 mph81%30.09 "Hg10 mi
4:00 AM45 °FClear.10 mph81%30.09 "Hg10 mi
3:00 AM45 °FClear.9 mph81%30.09 "Hg10 mi
2:00 AM46 °FClear.10 mph76%30.09 "Hg10 mi
1:00 AM46 °FClear.12 mph76%30.09 "Hg10 mi
Weather by CustomWeather, © 2016

See weather overviewHow to use our weather pages